Regional Weather Roundup
Issued by NWS

Home | Current Version | Previous Version | Graphics & Text | Print | Product List | Glossary On
Versions: 1 2 3 4 5 6 7 8 9 10 11 12 13 14 15 16 17 18 19 20 21 22 23 24 25 26 27 28 29 30 31 32 33 34 35 36 37 38 39 40 41 42 43 44 45 46 47 48 49
000
ASUS43 KDMX 211407
RWRIA

WEATHER ROUNDUP FOR IOWA
NATIONAL WEATHER SERVICE DES MOINES IA
800 AM CST FRI NOV 21 2014

NOTE: "FAIR" INDICATES FEW OR NO CLOUDS BELOW 12,000 FEET WITH NO
SIGNIFICANT WEATHER AND/OR OBSTRUCTIONS TO VISIBILITY.

* - THESE STATIONS ARE NOT NWS STATIONS...THUS NOT UNDER NWS
QUALITY CONTROL.  THEY ALSO DO NOT REPORT WEATHER SUCH
AS PRECIPITATION OR FOG.

IAZ001>003-012>014-020>022-031>034-043>046-211500-
   NORTHWEST IOWA

CITY           SKY/WX    TMP DP  RH WIND       PRES   REMARKS
CARROLL *      CLEAR     14  10  85 S10       30.23R WCI   1
CHEROKEE *     CLEAR     16  12  86 S7        30.16F WCI   6
DENISON *      CLEAR     19  12  73 S10       30.19R WCI   8
LE MARS *      CLEAR     16  12  86 S7        30.16R WCI   6
ORANGE CITY *  CLEAR     18  12  79 S7        30.13R WCI   8
SHELDON *      CLEAR     14  10  85 S12       30.12S WCI   0
SIOUX CITY     MOCLDY    19  13  77 SE8       30.18R WCI   9
SPENCER        MOCLDY    15   9  76 S17       30.15F WCI  -1
STORM LAKE *   CLEAR     14   9  79 SE13      30.17S WCI   0
$$

IAZ055>058-069>071-079>083-090>094-211500-
   SOUTHWEST IOWA

CITY           SKY/WX    TMP DP  RH WIND       PRES   REMARKS
ATLANTIC *     CLEAR     19  12  73 S9        30.24R WCI   9
AUDUBON *      CLEAR     18  10  73 S8        30.23R WCI   7
CLARINDA *     CLEAR     21  14  73 CALM      30.28S
COUNCIL BLFS * CLEAR     19  16  86 SE9       30.20F WCI   9
CRESTON *      CLEAR     18  10  73 SE12      30.26R WCI   5
HARLAN  *      CLEAR     19  14  79 S9        30.26R WCI   9
LAMONI         PTCLDY    18  11  74 SE9       30.29R WCI   7
RED OAK *      CLEAR     21  14  73 S7        30.25S WCI  13
SHENANDOAH *   CLEAR     21  16  79 SE7       30.26S WCI  13
$$

IAZ047>049-059>061-072>074-084-211500-
   CENTRAL IOWA

CITY           SKY/WX    TMP DP  RH WIND       PRES   REMARKS
AMES           PTCLDY     9   5  84 SE7       30.29S WCI  -2
ANKENY *       CLEAR     16   9  73 SE8       30.31S WCI   5
CHARITON *     CLEAR     18  10  73 SE10      30.29F WCI   6
DES MOINES     PTCLDY    17   9  70 SE10      30.30R WCI   5
GRINNELL*      CLEAR     12   9  85 SE9       30.32R WCI   0
KNOXVILLE *    CLEAR     16   9  73 SE12      30.30S WCI   3
MARSHALLTOWN   PTCLDY    11   6  81 SE9       30.30F WCI  -2
PELLA *        CLEAR     14  10  85 SE8       30.34S WCI   3
PERRY *          N/A     16  12  86 SE9       30.27S WCI   4
$$

IAZ004>006-015-016-023>025-035-036-211500-
   NORTH CENTRAL IOWA

CITY           SKY/WX    TMP DP  RH WIND       PRES   REMARKS
ALGONA *       CLEAR     12   7  79 S13       30.21S WCI  -3
CLARION *      CLEAR     10   5  79 SE15      30.24F WCI  -6
ESTHERVILLE    PTCLDY    12   8  84 S18       30.15F WCI  -6
FORT DODGE *   PTCLDY    16   9  73 S8        30.24S WCI   5
MASON CITY     PTCLDY     7   4  87 S12       30.26F WCI  -8
FOREST CITY *  CLEAR     12  10  92 SE13      30.23F WCI  -3
IOWA FALLS *     N/A      9   5  85 SE9       30.28F WCI  -5
$$

IAZ007>011-017>019-026>030-037>042-050>054-066-211500-
   NORTHEAST IOWA

CITY           SKY/WX    TMP DP  RH WIND       PRES   REMARKS
CEDAR RAPIDS   PTCLDY     9   6  88 S6        30.35S WCI  -1
CHARLES CITY * CLEAR      9   3  78 S9G15     30.30S WCI  -5
CLINTON *      PTCLDY    10   9  92 E7        30.42S WCI   0
DECORAH *      CLEAR      9   5  85 S10       30.29S WCI  -6
DUBUQUE        PTCLDY    11   5  77 SE10      30.35R WCI  -3
MONTICELLO *   CLEAR      9   3  78 SE5       30.37R WCI   0
OELWEIN *      CLEAR      7   1  78 SE9       30.33R WCI  -7
WATERLOO       MOCLDY    11   6  81 S12       30.33S WCI  -3
$$

IAZ064-065-067-068-078-211500-
   EAST CENTRAL IOWA

CITY           SKY/WX    TMP DP  RH WIND       PRES   REMARKS
DAVENPORT      PTCLDY    14   6  70 SE13      30.40R WCI   0
IOWA CITY      PTCLDY    12   7  80 SE5       30.40R WCI   4
MT. PLEASANT * PTCLDY    16  10  79 SE10      30.38S WCI   3
MUSCATINE *    CLEAR     14   9  79 SE5       30.42R WCI   6
QUAD CITIES    MOCLDY    13   6  74 E6        30.41R WCI   4
$$

IAZ062-063-075>077-085>089-095>099-211500-
   SOUTHEAST IOWA

CITY           SKY/WX    TMP DP  RH WIND       PRES   REMARKS
BURLINGTON     MOCLDY    17   9  70 SE8       30.39R WCI   7
FAIRFIELD *    MOCLDY    14   9  79 SE8       30.37R WCI   3
FORT MADISON * CLEAR     19  12  73 SE10      30.39R WCI   8
KEOKUK *       CLEAR     19  12  73 SE12      30.39R WCI   7
OSKALOOSA *      N/A     12   9  85 SE8       30.35R WCI   1
CENTERVILLE *  CLEAR     18  12  79 SE8       30.33R WCI   7
OTTUMWA        PTCLDY    15   8  73 SE8       30.35R WCI   4
WASHINGTON *   CLEAR     12  10  92 SE8       30.38R WCI   1
$$

ABBREVIATIONS USED IN REMARKS
   TC - TEMPERATURES IN CELSIUS
  WCI - WIND CHILL INDEX
   HX - HEAT INDEX
  VSB - VISIBILITY
$$




USA.gov is the U.S. government's official web portal to all federal, state and local government web resources and services.